Theta_e
333 338 340 350 351 352 352 351 352 352 351 350 349 350 350 350 349 349 348 347 347 347 346 345 346 345 344 344 344 345 344 344 344 344 343 344 343 343 344 345 345 345 345 346 346 347 348 348 348 348 347 348 350 350 353 353 352 352 352 351 350 349 349 350 350 351 354 355 353 353 352 351 351 352 353 352 352 354 353 353 351 348 348 351 353
333 338 339 341 350 351 351 351 351 351 351 350 350 349 350 351 350 349 349 348 347 347 347 346 346 346 345 345 344 343 343 344 343 343 343 343 343 342 342 343 343 344 345 346 346 346 346 347 347 348 348 348 348 349 351 353 352 352 351 350 349 348 348 349 350 352 352 351 352 353 352 352 351 353 352 351 352 353 352 351 350 347 346 353 353
332 338 338 341 349 351 352 351 350 351 351 350 350 350 350 350 350 350 349 348 348 348 348 347 347 346 347 345 344 343 343 344 344 343 343 343 342 342 343 343 343 343 344 345 346 347 346 346 346 347 347 348 348 349 351 352 352 351 351 350 349 349 349 349 349 351 351 351 351 351 349 349 350 350 352 351 352 353 351 351 349 348 348 353 352
331 333 339 342 346 348 351 353 353 354 353 352 352 352 350 351 350 350 349 349 348 348 348 347 347 346 346 346 345 344 343 343 342 343 343 343 343 344 346 343 343 343 343 345 346 346 347 346 346 346 346 349 349 350 351 352 352 351 350 349 349 349 348 349 348 351 350 350 349 346 346 347 348 350 352 352 352 351 350 350 349 350 352 352 352
331 333 339 339 339 344 349 351 353 354 354 352 351 351 349 350 350 349 349 349 348 348 347 347 347 346 346 346 345 345 344 344 343 344 343 343 343 343 346 344 343 343 344 345 345 345 344 345 346 346 346 349 349 350 352 352 352 351 350 349 348 348 349 348 348 350 349 348 347 344 344 345 344 350 351 352 352 350 349 350 351 352 350 351 352
331 333 338 339 337 338 347 349 351 352 351 351 351 350 349 349 350 349 349 348 348 348 347 347 347 346 346 346 345 345 345 345 344 344 344 343 343 344 346 344 344 343 344 345 345 344 344 344 344 345 346 347 350 351 352 352 352 351 350 349 348 349 349 348 348 349 348 346 344 342 344 343 345 348 351 352 352 350 351 351 352 350 348 347 350
329 334 335 337 339 338 344 349 350 350 351 351 351 351 350 350 350 349 349 349 349 349 348 347 347 346 346 346 345 345 345 345 345 345 344 344 344 345 345 345 344 344 344 345 345 345 344 343 344 344 345 347 349 350 352 352 352 351 350 349 348 348 348 348 347 348 346 344 342 341 342 344 344 344 351 352 351 352 352 352 352 350 351 350 350
321 330 335 337 337 339 343 349 349 349 350 350 350 351 351 351 351 349 349 349 349 349 348 348 348 348 346 344 345 345 345 345 345 345 345 345 345 346 345 346 344 345 346 347 346 346 346 344 344 345 344 345 347 347 351 353 352 352 349 349 347 347 347 347 347 346 345 343 341 341 342 343 343 343 350 351 352 353 353 352 352 351 350 350 346
323 326 335 337 338 340 343 346 348 349 349 349 349 349 349 349 349 350 349 348 349 349 348 349 348 347 347 347 346 345 344 344 345 345 344 344 345 348 346 346 345 344 346 348 348 347 347 346 346 345 345 344 347 348 350 352 352 351 350 349 348 346 347 347 346 344 343 342 341 340 342 343 343 343 349 351 351 353 352 351 349 350 350 348 347
324 326 334 335 336 340 342 344 345 345 346 346 347 347 348 349 348 348 348 347 348 348 348 348 348 347 347 346 346 346 345 345 345 345 345 345 347 347 347 347 348 348 347 347 348 348 349 347 347 346 346 345 347 347 348 352 352 351 350 349 349 346 346 347 345 342 343 342 341 341 341 344 343 343 347 351 351 351 350 346 345 346 348 347 346
325 326 328 333 334 337 341 341 342 342 342 343 343 344 346 347 348 348 348 347 347 347 348 347 347 347 347 346 346 345 345 345 344 344 345 345 346 345 346 347 346 346 347 347 347 347 347 348 348 347 347 345 347 347 348 352 352 351 350 349 348 347 348 346 343 342 341 341 341 340 342 343 343 342 349 350 351 351 348 345 344 344 347 348 349
324 326 327 329 333 335 338 340 340 339 340 340 340 342 343 345 346 347 348 347 346 347 346 347 346 346 346 347 347 347 346 346 345 344 345 345 346 346 345 346 346 346 346 346 347 348 347 347 349 349 344 345 346 347 349 352 351 351 350 349 348 347 347 344 341 340 341 340 340 339 341 343 343 344 350 350 350 347 347 346 347 349 349 349 348
321 322 323 324 326 332 335 339 338 338 338 338 339 340 340 342 345 345 346 347 346 346 346 346 346 347 347 346 346 346 345 345 344 344 345 345 346 346 346 344 346 346 346 346 347 348 348 348 348 348 348 343 345 345 348 350 351 350 349 349 347 347 344 341 340 339 340 339 339 337 341 342 342 346 350 350 348 347 350 349 349 349 349 348 348
311 312 313 313 315 322 326 333 336 336 337 338 338 338 340 340 342 343 344 345 345 345 345 344 344 345 345 346 346 345 345 345 345 344 344 344 345 345 345 344 345 345 346 346 346 347 348 348 348 347 347 346 344 345 344 347 350 349 348 347 347 345 341 337 338 340 339 338 338 337 340 341 341 346 351 350 349 347 349 349 349 349 349 348 348
306 307 309 309 309 311 318 322 324 330 335 336 337 337 337 338 339 340 341 342 343 344 344 345 344 345 344 344 344 345 344 346 345 344 344 342 342 342 345 344 344 345 345 346 346 346 346 348 348 346 345 344 345 346 345 344 348 349 348 346 345 342 339 340 339 339 339 338 337 337 338 340 343 348 351 349 350 348 348 350 350 349 349 348 346
306 305 306 307 307 308 310 316 319 321 324 332 334 335 335 336 337 338 339 340 340 341 342 342 343 344 344 344 343 343 344 344 343 343 344 344 343 343 343 343 343 343 345 345 345 345 346 346 346 345 344 344 344 346 346 344 344 347 345 344 341 339 335 335 338 338 339 338 337 336 338 338 344 349 351 349 349 349 348 350 349 349 349 349 348
305 305 304 305 306 306 308 310 313 317 317 320 324 330 333 334 335 336 337 338 338 339 339 340 341 341 342 342 343 342 342 343 343 343 344 342 341 341 341 342 341 342 343 345 345 345 345 345 345 345 345 344 344 345 345 345 344 344 343 342 340 339 335 333 338 338 339 338 336 337 337 338 342 350 351 349 348 349 348 350 349 347 349 348 348
304 303 302 303 303 303 306 308 308 308 309 314 318 323 326 330 333 334 335 335 336 337 337 338 338 338 338 337 337 337 338 339 340 341 342 342 341 341 339 342 342 342 343 343 344 345 344 344 345 345 344 345 345 345 345 345 343 343 342 341 339 337 333 330 339 338 339 337 337 337 337 338 343 350 351 348 347 347 348 350 349 348 347 348 348
301 301 302 302 302 302 302 306 307 306 308 310 312 315 321 323 327 329 332 335 335 335 335 335 334 334 334 333 333 331 331 332 334 336 338 338 337 336 337 342 342 342 342 343 343 344 344 344 344 344 344 343 344 344 345 344 342 341 341 338 336 333 330 330 338 338 337 336 336 336 338 339 343 351 349 346 347 347 347 349 348 346 348 347 348
300 300 300 301 301 301 301 303 305 303 305 308 310 312 316 319 322 325 326 329 331 332 332 332 330 327 327 327 326 326 327 329 328 330 330 334 334 333 333 339 342 342 342 342 343 343 343 343 343 343 343 342 342 342 342 342 341 340 338 336 333 328 332 335 336 335 335 334 335 336 337 341 346 351 351 348 347 347 346 346 348 346 347 343 346
300 299 299 300 300 301 300 301 303 301 302 305 308 311 312 317 317 319 322 323 325 326 327 326 323 323 322 323 322 326 329 331 332 332 327 329 326 326 329 336 339 339 340 341 342 342 342 343 342 342 342 342 339 337 335 339 340 339 337 334 328 333 334 334 335 332 332 333 334 336 338 341 346 350 349 348 349 344 346 346 347 347 345 344 343
296 297 299 299 299 299 300 299 301 301 301 304 306 308 309 312 312 314 317 319 320 320 322 324 322 325 323 325 327 327 328 331 332 329 332 330 329 324 326 331 336 337 337 339 340 341 341 342 342 342 341 339 335 335 333 330 334 336 333 329 332 335 333 332 334 332 331 333 333 335 338 342 347 349 349 349 346 344 346 345 345 346 345 344 343
296 296 297 298 298 299 299 299 299 301 300 300 303 304 305 307 307 310 314 317 316 317 319 321 325 326 326 328 327 328 329 329 330 330 330 326 329 326 326 329 332 334 334 335 337 339 340 340 341 340 338 335 334 333 334 335 335 327 326 331 335 335 334 331 331 332 332 333 334 334 337 344 348 347 348 347 346 346 344 345 345 344 343 343 345
295 295 296 299 298 298 298 298 299 300 300 299 301 301 303 304 304 306 310 311 313 315 316 319 321 323 327 328 328 329 329 330 325 323 322 328 329 324 324 326 327 328 328 331 332 335 338 338 337 336 333 330 332 332 334 336 336 335 335 335 335 334 333 330 329 332 333 332 334 333 338 344 348 349 350 348 347 346 345 345 345 343 341 344 343
295 296 296 297 297 297 297 297 298 299 299 299 299 300 302 302 302 304 307 308 309 311 313 315 318 320 322 325 328 329 330 330 331 332 331 330 330 330 329 328 327 328 325 328 330 331 332 332 332 330 330 329 330 332 334 335 335 335 334 334 335 334 333 331 329 331 333 334 333 331 335 341 347 349 349 348 348 347 345 344 344 343 342 343 345
295 295 294 295 296 296 296 297 297 298 298 298 299 300 301 300 300 302 304 305 306 307 310 313 315 317 319 321 322 324 326 328 329 330 331 332 330 330 330 329 327 327 327 328 329 329 328 328 327 327 327 327 329 332 334 333 333 333 333 333 333 333 333 332 331 330 332 333 333 329 332 338 345 348 347 349 347 345 345 345 346 345 342 344 344
292 294 293 294 295 295 295 296 296 297 298 298 298 298 299 299 299 301 302 302 304 305 308 310 310 313 316 318 320 321 323 325 326 327 329 330 329 329 329 329 328 327 327 328 328 328 327 326 326 325 325 326 328 331 333 333 333 332 331 332 332 332 332 330 330 331 332 332 328 327 330 334 344 348 347 348 348 346 347 345 345 343 342 343 343
291 292 293 293 294 294 294 294 295 296 296 297 297 297 298 298 299 300 300 302 303 303 305 304 306 310 314 316 318 321 322 322 322 323 325 327 327 327 327 328 329 329 329 328 328 327 327 326 325 325 325 325 328 330 331 331 332 332 331 330 331 331 331 330 330 331 332 331 331 326 329 333 338 343 346 346 347 347 346 345 346 346 343 343 343
290 291 292 292 293 295 294 293 294 295 295 295 295 296 297 297 297 297 298 302 301 302 302 303 304 308 309 311 314 316 318 319 321 322 324 325 326 326 326 326 327 329 330 329 329 327 326 325 325 325 325 326 327 328 329 329 330 330 331 329 329 329 329 330 330 330 331 331 331 328 327 331 337 340 343 345 347 345 345 347 347 344 344 342 343
290 290 291 291 292 293 293 293 294 295 295 294 294 294 295 295 295 296 297 299 299 300 301 301 304 304 304 305 307 311 316 318 320 321 322 322 323 325 325 325 326 327 327 328 328 327 326 324 324 324 325 325 325 326 326 327 328 328 330 329 328 328 329 328 328 329 329 330 331 330 324 329 334 340 342 343 343 347 345 345 344 344 343 344 344
290 290 290 291 293 292 293 294 294 295 294 294 294 294 295 294 295 295 295 296 298 299 299 301 302 302 301 302 304 309 309 308 311 314 318 320 321 323 323 325 325 325 325 324 326 325 326 325 324 323 324 324 325 325 324 326 326 326 327 328 328 328 328 328 328 329 329 329 330 329 327 325 330 334 337 340 342 342 343 343 345 345 344 344 341
289 290 290 291 291 291 292 294 294 294 294 293 294 294 294 294 294 294 294 295 297 297 298 299 300 300 300 301 303 304 303 304 306 309 313 317 319 320 322 323 323 325 325 325 325 324 324 324 323 323 322 323 324 323 324 324 324 325 326 327 327 327 326 327 327 328 328 328 329 330 330 329 325 329 332 338 341 341 341 341 341 343 343 344 344
289 290 290 290 290 291 292 293 293 293 292 293 293 294 294 294 293 293 294 296 295 296 297 297 298 299 299 299 300 301 301 302 304 307 312 315 317 317 318 320 323 323 324 324 324 323 322 321 320 320 320 322 322 321 322 323 322 323 324 324 325 326 326 325 326 327 327 327 328 329 330 328 329 323 324 329 336 338 339 341 343 344 344 344 342
289 288 288 289 291 292 293 294 293 292 293 292 293 293 293 293 294 293 294 294 294 295 296 296 297 298 298 299 299 299 300 301 303 307 309 312 314 315 316 318 321 323 324 324 324 322 319 319 319 319 318 320 320 320 320 320 321 322 322 323 323 324 324 324 325 326 327 326 327 328 328 328 329 329 328 323 328 330 336 338 339 339 339 341 341
288 288 288 289 290 290 293 292 292 291 291 291 292 292 293 292 292 293 293 293 294 294 295 296 297 297 297 298 298 298 299 300 304 304 305 308 310 312 314 316 319 320 322 323 322 322 320 319 318 319 319 319 320 319 320 320 320 320 321 321 322 322 322 322 323 323 324 325 324 325 328 327 328 329 328 329 320 325 330 336 338 339 338 338 338
288 288 288 289 289 289 291 290 290 291 291 292 291 292 292 292 292 294 292 293 293 293 294 295 296 296 297 297 297 297 298 300 302 302 303 306 308 311 313 315 316 318 321 322 321 320 318 319 318 319 317 317 318 317 318 319 319 319 319 320 321 320 320 320 320 320 322 323 323 323 325 326 326 327 323 329 328 325 325 331 334 335 337 337 337
288 288 287 288 289 289 290 290 290 290 290 290 291 291 291 291 291 292 292 292 292 292 293 294 295 296 296 296 296 297 297 299 300 302 303 304 306 309 312 314 313 313 316 320 320 320 319 317 316 318 319 317 317 317 316 318 317 318 317 318 318 318 318 319 320 320 320 321 322 322 322 323 322 316 326 327 328 328 324 326 330 331 330 332 336
287 287 287 288 288 289 289 290 290 290 290 291 291 291 291 291 291 291 292 292 292 292 293 293 294 295 295 296 296 296 297 298 299 301 302 303 305 308 309 308 308 308 310 317 320 320 319 318 316 317 318 318 317 316 315 316 317 316 316 316 316 317 318 318 318 315 319 320 321 321 322 321 321 322 324 325 326 326 327 325 325 326 323 327 333
286 286 287 288 288 288 289 289 290 290 290 290 290 291 291 291 291 291 291 291 291 292 292 292 293 294 295 295 295 296 297 297 298 299 299 301 305 305 304 305 307 308 309 311 318 318 317 317 316 316 317 318 318 317 316 315 316 315 315 315 315 315 316 316 316 318 319 318 319 319 320 320 320 320 320 322 324 324 325 325 326 323 324 324 330
286 286 287 287 287 288 289 289 289 290 290 290 290 290 290 289 289 289 289 290 290 291 291 292 292 292 293 294 295 296 297 297 297 298 299 302 302 301 302 304 307 308 308 308 313 317 316 315 316 315 315 314 316 317 316 314 313 314 311 311 309 309 312 312 315 317 318 318 317 317 318 318 319 319 318 319 322 324 324 323 321 324 324 324 325
285 286 286 287 287 288 288 288 289 290 289 289 289 289 288 288 288 288 288 289 289 290 291 291 291 292 293 293 294 295 296 296 296 297 299 301 300 299 300 302 305 308 308 308 310 316 316 316 315 314 314 312 311 313 314 313 310 305 307 307 306 307 307 311 312 313 316 317 317 317 317 317 317 317 318 317 320 322 323 321 321 323 324 324 323
285 285 286 286 287 287 287 288 289 289 289 289 289 289 289 288 288 288 288 289 289 289 289 290 291 292 292 293 294 295 295 296 296 297 299 299 297 297 298 301 304 306 306 307 308 311 314 315 314 312 314 313 311 312 312 312 308 306 304 302 304 306 305 307 310 310 311 314 316 317 316 317 316 316 316 317 317 320 319 320 321 321 323 322 322
284 285 285 286 287 287 288 288 288 288 289 289 289 288 288 288 288 288 288 288 289 289 289 290 291 291 292 292 293 294 295 295 296 296 298 298 297 298 298 300 301 303 303 304 306 307 311 314 314 312 311 313 312 312 312 313 309 309 307 304 301 302 302 304 304 306 308 312 313 315 316 316 316 316 316 316 315 316 318 319 320 320 320 322 321
284 284 285 286 287 288 287 287 288 288 288 288 289 288 288 288 287 287 286 286 285 287 287 288 289 290 290 292 292 293 294 295 295 295 297 297 297 298 299 299 299 302 303 303 304 305 307 312 313 312 313 309 308 309 312 313 312 309 302 304 303 304 298 301 304 302 301 308 313 314 315 316 316 316 316 315 314 314 316 318 319 319 319 320 321
284 285 285 286 287 287 287 287 287 287 288 288 287 287 286 285 284 284 284 283 283 284 284 285 287 288 288 289 291 292 293 293 294 294 295 296 297 298 298 298 298 301 302 303 303 305 307 310 314 311 312 310 308 309 310 311 311 313 309 302 299 299 301 303 304 299 300 306 307 313 312 315 315 315 316 315 314 315 316 317 318 318 319 319 319
284 285 286 287 286 287 287 287 287 287 286 286 286 285 284 282 281 280 279 279 279 280 280 281 281 282 283 286 288 291 292 292 293 294 295 296 297 297 297 298 298 300 301 302 303 305 306 308 312 312 311 312 310 309 308 310 312 311 311 311 306 301 301 303 304 298 297 298 300 302 312 314 314 314 316 314 313 313 314 317 317 315 316 317 317
284 285 286 286 286 286 286 286 285 285 285 285 284 284 282 281 280 280 279 279 279 280 282 282 282 282 283 284 286 288 290 291 292 293 294 296 296 295 296 297 298 300 301 301 301 302 304 305 308 313 312 311 311 308 308 309 310 310 310 310 301 303 307 305 303 302 297 299 298 300 305 313 313 313 314 314 314 314 314 315 315 316 316 315 316
284 285 285 286 285 285 285 285 284 284 284 284 283 283 281 281 280 279 280 279 280 280 281 281 282 282 283 284 285 286 288 290 292 292 294 295 295 295 296 297 299 300 299 299 299 302 304 306 307 310 313 312 311 310 309 310 308 308 309 307 301 305 308 309 310 305 304 299 298 297 298 301 312 313 313 313 313 314 314 314 315 314 314 314 315
284 285 285 285 285 285 284 284 283 283 283 282 282 282 281 281 280 279 278 280 280 280 281 281 281 281 281 281 282 283 285 287 289 291 292 293 294 294 295 296 298 298 298 298 299 300 302 303 303 303 309 311 312 312 311 310 310 309 308 305 301 303 306 306 304 301 305 301 301 301 302 300 306 312 313 313 313 314 314 314 314 314 312 313 314
284 285 284 284 284 284 283 283 282 282 282 281 281 281 280 280 279 279 278 278 279 278 279 279 279 280 280 280 281 282 283 285 287 289 291 293 294 294 295 296 297 298 297 298 299 299 302 302 303 303 305 310 312 311 311 311 311 311 310 306 302 300 303 300 298 301 300 306 302 301 303 302 304 307 308 311 312 313 314 314 312 313 313 314 314
283 283 283 283 283 283 282 281 281 281 281 280 280 280 280 279 279 278 278 277 277 277 277 277 278 279 279 279 280 281 282 284 285 287 290 293 294 294 294 295 297 297 297 298 298 299 300 301 303 303 302 303 311 311 309 311 311 310 310 308 304 303 303 302 302 302 303 296 298 303 304 306 307 302 303 309 311 312 313 313 313 312 313 313 313
Wind_Speed
2 2 1 4 4 6 8 8 8 8 8 7 7 7 6 6 5 5 5 4 5 5 5 4 4 5 4 4 4 4 4 4 5 5 5 6 6 5 6 7 7 7 7 8 8 7 7 7 7 8 8 6 5 6 7 8 9 10 9 9 8 4 3 4 3 6 6 7 9 10 10 9 9 12 13 13 11 12 10 6 7 5 3 10 15
6 0 2 2 4 5 7 7 8 8 7 7 6 6 7 7 6 6 6 6 6 6 6 6 6 6 6 5 5 5 5 5 6 7 7 8 8 8 8 8 8 9 9 9 9 9 9 9 8 9 9 9 7 7 8 8 9 10 10 10 7 5 4 5 4 5 4 8 7 8 9 11 10 11 12 13 13 12 8 7 8 5 4 13 15
4 2 2 2 4 3 4 6 8 8 7 7 6 5 6 6 6 6 6 7 6 7 7 7 7 7 7 7 7 6 6 6 7 7 8 8 8 8 9 9 9 9 10 10 11 11 10 9 9 9 10 9 9 8 7 9 9 9 8 9 7 6 6 5 6 4 6 7 7 8 11 10 10 11 15 13 14 9 6 9 8 7 7 15 12
5 3 2 3 4 3 2 2 6 6 6 5 5 4 5 4 5 6 7 7 7 8 8 8 8 8 8 9 8 7 8 8 8 7 8 8 8 9 7 9 10 10 11 11 11 11 11 11 10 10 10 8 8 8 7 9 8 10 9 10 9 7 5 5 6 5 7 7 6 5 5 5 8 13 16 16 13 8 6 10 10 9 14 13 15
4 3 2 2 2 3 2 5 5 2 2 4 2 5 5 5 5 6 7 7 8 9 9 9 9 9 9 8 9 9 9 9 9 9 9 10 9 9 7 7 10 11 12 12 12 12 11 11 11 11 11 9 8 8 6 9 9 10 11 12 10 9 8 8 6 6 9 8 7 5 5 4 3 9 16 17 12 8 8 10 10 13 10 14 18
5 3 3 1 2 2 3 3 4 7 3 3 4 6 6 6 6 6 7 7 8 10 10 10 10 10 10 9 10 10 10 10 10 11 11 10 10 10 8 10 11 11 12 13 12 12 11 11 11 11 12 10 8 7 7 10 10 11 12 13 11 11 10 10 8 8 9 8 8 4 5 4 4 5 16 15 11 8 10 11 12 15 16 13 16
7 3 3 3 1 2 3 2 2 4 8 5 4 3 5 6 6 7 8 8 8 9 8 11 12 11 10 11 11 11 11 11 11 12 12 11 12 11 10 10 11 11 12 13 12 12 11 11 11 12 12 11 9 7 8 11 12 12 13 13 12 12 11 10 9 7 9 7 5 4 5 5 4 2 15 13 11 12 13 14 15 16 17 18 16
11 8 6 7 3 2 2 1 2 4 6 8 9 7 6 6 6 7 8 8 8 9 10 11 13 12 12 13 12 12 12 12 12 12 13 12 12 12 11 11 11 11 12 13 13 12 12 11 11 11 12 11 10 11 9 11 12 13 14 15 13 13 13 11 10 8 8 6 5 5 5 4 4 3 13 13 12 15 15 16 15 17 16 16 12
11 11 8 8 7 11 9 8 8 8 8 9 10 11 11 10 7 6 9 9 9 9 10 11 12 12 13 12 14 13 13 13 13 13 13 14 11 6 8 10 12 11 11 11 12 14 14 13 12 12 12 12 10 10 9 13 13 14 14 16 16 14 13 12 11 10 7 4 5 5 6 5 5 4 11 14 15 17 17 14 16 18 18 14 14
11 10 8 6 6 11 11 11 11 11 11 12 13 13 13 13 13 11 11 10 10 11 11 12 13 13 13 14 14 15 15 14 14 14 14 12 8 8 6 7 6 7 9 11 12 13 13 14 15 14 13 12 11 11 10 13 14 14 14 16 17 16 14 13 12 9 7 6 6 5 6 8 6 5 9 16 17 16 15 11 9 11 10 15 14
12 11 9 7 8 11 9 9 8 9 10 10 11 13 15 16 15 14 13 13 13 12 13 14 14 14 14 15 15 13 13 16 15 13 13 12 12 13 11 8 8 9 10 11 12 13 14 14 14 14 15 14 10 10 10 13 14 14 15 16 17 16 15 13 12 5 6 7 6 4 7 12 7 6 12 16 14 17 13 12 12 12 13 16 18
11 10 9 7 7 7 7 5 6 7 8 9 10 11 12 15 16 16 15 13 13 14 14 14 15 15 15 15 14 13 14 15 16 15 12 12 12 13 13 11 10 11 12 13 13 14 14 15 15 12 14 12 13 11 10 13 14 15 15 16 16 16 15 14 10 10 8 8 6 6 6 9 9 8 15 17 17 17 15 13 15 17 17 18 20
14 12 11 11 10 12 9 4 4 6 6 9 10 11 11 12 15 16 16 16 15 14 15 15 15 16 16 16 16 16 16 14 16 17 15 13 12 13 15 14 12 12 13 13 14 15 14 15 15 14 12 13 13 12 11 13 15 16 16 17 17 16 15 15 10 11 9 8 6 6 8 8 8 12 16 19 17 19 18 17 17 17 18 19 20
13 13 12 12 11 17 20 15 9 7 8 8 10 10 11 11 12 14 16 17 17 17 15 16 16 16 17 17 18 17 16 14 13 14 19 17 16 15 16 15 14 13 14 14 15 15 15 15 14 13 12 8 10 11 14 14 15 17 15 16 17 18 15 14 12 10 9 8 7 6 9 8 8 15 17 20 21 20 19 18 19 19 19 20 21
14 13 12 12 12 12 18 21 21 16 11 10 10 10 11 12 12 12 13 15 16 17 18 17 17 17 17 16 18 18 18 15 14 16 15 17 17 18 16 15 14 14 14 15 15 14 15 15 14 13 9 9 10 10 12 15 15 15 15 16 17 17 18 10 10 8 9 10 8 6 8 9 13 17 19 21 21 21 20 19 19 18 17 17 15
13 12 11 13 13 11 12 17 21 21 20 13 10 10 12 12 12 13 13 13 14 16 17 17 18 17 17 18 17 18 18 18 19 17 15 16 15 16 17 18 16 15 15 15 15 15 15 15 15 12 11 12 12 11 10 12 16 15 15 15 16 17 17 12 9 9 9 10 8 5 7 8 16 18 20 22 23 22 21 19 20 19 19 21 20
12 13 13 13 13 12 12 13 17 21 19 20 16 12 10 11 12 13 13 13 14 14 16 17 17 18 18 18 17 15 15 16 16 17 15 13 14 17 19 16 17 16 16 16 15 15 15 15 13 11 11 12 12 11 10 12 15 16 15 16 17 17 17 15 10 9 9 10 8 7 7 7 15 18 20 21 22 23 23 20 20 19 19 21 21
10 12 13 12 13 13 12 11 14 15 15 14 15 17 17 14 11 11 11 13 13 14 14 14 16 16 17 16 16 15 15 15 17 16 17 15 15 17 18 18 17 16 15 16 16 16 15 15 13 12 11 11 11 10 11 13 15 16 16 16 18 18 17 17 10 10 10 11 9 6 6 10 16 19 21 22 22 21 23 22 21 19 20 19 18
11 12 12 13 12 13 13 10 12 13 14 12 12 14 18 19 18 16 14 11 12 13 14 14 15 15 16 16 16 15 14 16 16 15 15 16 15 15 16 17 17 16 15 16 17 16 15 14 14 13 12 13 12 12 12 14 16 17 17 17 18 19 19 15 10 10 10 9 9 7 6 14 16 17 20 20 22 24 23 24 24 22 19 22 22
9 11 12 12 10 11 12 10 11 14 12 11 11 12 16 20 18 18 17 14 14 15 15 16 16 15 15 16 16 14 12 12 16 15 16 17 17 15 14 17 16 16 15 16 17 16 15 15 14 14 14 13 13 12 12 14 16 17 17 18 16 19 14 11 12 11 10 8 8 7 8 14 18 21 23 24 23 21 23 22 24 22 22 23 20
8 10 11 11 12 10 13 11 9 13 13 11 10 10 12 17 15 18 18 17 15 14 16 17 15 13 13 13 14 12 10 10 11 11 14 13 13 15 15 17 18 17 16 15 17 16 16 16 15 15 15 14 13 13 13 14 17 18 17 17 17 12 10 12 11 10 8 8 8 8 13 16 19 19 19 20 21 23 20 20 23 22 24 24 22
9 9 10 11 11 11 11 13 9 12 12 10 9 9 10 13 12 11 11 14 14 15 11 9 11 9 12 10 9 8 8 8 10 12 11 12 13 16 17 18 18 17 17 17 17 17 17 17 16 15 15 14 15 9 8 12 17 17 17 18 13 10 9 12 12 10 9 8 7 9 17 18 18 22 25 24 23 24 23 24 23 24 24 26 26
7 8 8 10 8 8 8 12 12 9 13 12 9 9 11 10 11 12 10 12 13 13 12 11 8 8 8 8 8 7 8 9 9 11 11 14 14 15 17 19 19 19 19 18 18 18 18 18 16 16 15 16 11 7 7 7 9 16 16 14 11 10 11 12 11 10 10 8 7 13 18 21 21 25 26 26 25 21 22 25 24 24 24 28 27
5 5 5 5 8 7 8 6 11 7 11 10 9 10 9 9 10 11 10 10 11 11 11 12 11 10 8 8 7 8 8 8 11 15 15 12 12 16 19 20 21 21 21 16 18 18 19 19 17 17 13 8 7 7 7 7 8 8 10 11 11 11 12 11 11 10 10 8 8 17 20 22 22 24 27 27 26 27 27 24 26 24 25 27 28
5 4 5 7 8 7 7 7 10 6 9 10 10 10 9 8 9 10 10 10 10 11 11 11 10 11 12 10 8 7 8 8 9 9 9 10 10 10 10 11 11 12 16 12 10 11 12 10 9 11 7 8 8 8 7 8 8 9 10 10 11 12 12 11 10 10 10 10 10 17 20 21 22 24 26 28 28 26 28 26 26 27 26 28 26
6 5 6 7 8 8 8 6 8 7 8 9 9 9 9 7 9 9 9 9 10 11 10 10 11 11 10 11 11 10 9 8 8 8 10 11 12 10 10 10 10 11 10 10 10 10 9 9 10 9 8 7 8 8 8 9 8 8 9 10 10 11 11 11 11 12 10 9 11 19 20 20 22 25 27 27 28 28 28 27 28 29 29 30 28
7 6 4 5 6 7 7 6 8 6 8 8 8 8 7 7 8 9 10 9 9 10 9 10 12 14 12 10 10 10 10 9 10 10 10 9 10 9 9 9 10 10 9 10 11 10 10 10 9 10 9 9 9 9 9 10 9 10 9 11 11 11 11 11 11 11 10 9 10 20 18 19 22 24 26 28 29 30 30 30 31 30 30 31 31
5 7 6 6 6 9 7 5 7 6 8 8 8 8 6 7 8 8 9 10 10 8 8 11 12 11 12 12 11 9 10 11 11 11 10 10 11 10 8 8 9 10 9 9 10 10 10 9 10 10 10 9 10 10 9 9 10 10 10 11 11 11 11 11 12 12 11 9 10 18 21 22 21 22 27 28 29 29 30 30 30 30 32 32 30
6 7 6 6 5 8 8 6 6 7 8 8 8 7 7 8 7 8 8 9 8 7 9 10 10 9 11 12 12 12 11 10 11 11 10 10 10 10 10 10 9 9 8 10 10 10 10 10 10 10 9 9 9 9 9 10 10 10 11 11 11 12 12 11 12 12 12 10 10 16 23 23 21 22 23 28 28 27 30 30 31 34 31 28 31
5 5 6 6 5 8 8 6 7 9 9 9 9 9 9 9 9 9 9 8 8 8 8 8 7 8 9 10 12 12 11 11 12 12 12 13 11 11 11 10 10 8 8 10 9 10 10 10 10 10 10 10 9 10 9 10 11 11 11 12 12 12 12 12 12 10 10 10 11 14 23 22 22 23 22 24 27 26 27 29 31 32 32 34 32
5 6 6 6 5 6 7 6 6 8 9 10 10 10 10 10 11 11 10 10 10 9 8 8 7 7 8 10 11 10 11 12 12 13 12 12 12 12 11 11 11 10 9 9 9 9 10 11 11 11 10 10 10 9 9 10 10 11 12 12 12 11 11 12 12 12 11 9 9 8 14 21 22 21 20 20 22 27 26 29 34 33 34 33 33
6 7 6 6 6 7 8 6 7 9 10 10 10 10 10 10 12 11 11 11 12 11 10 9 8 8 7 8 9 10 10 11 12 12 12 13 12 13 13 12 11 10 9 10 10 10 11 11 12 11 10 9 8 8 10 9 9 11 11 13 12 11 11 11 12 13 12 11 9 10 11 14 19 19 19 20 20 25 27 29 33 34 34 35 34
5 6 6 5 7 8 8 7 8 10 11 12 11 9 9 10 11 11 12 12 11 11 11 11 10 8 8 8 8 10 9 9 11 12 12 12 12 13 14 14 13 11 11 12 13 12 11 11 10 8 8 9 9 9 9 10 10 10 12 12 10 13 12 12 12 12 13 11 10 10 10 10 12 15 16 18 21 20 27 29 30 31 32 31 34
6 5 4 7 9 7 7 8 10 12 13 12 11 10 11 11 10 10 11 13 12 12 12 11 11 9 9 8 8 9 10 10 10 11 11 11 12 12 13 14 13 13 12 12 13 11 10 11 11 10 10 10 10 10 10 11 10 9 10 12 11 11 11 12 12 13 13 11 10 9 9 9 11 11 12 16 21 20 22 26 30 30 32 31 33
6 6 8 10 12 12 10 9 12 13 13 13 12 11 12 12 12 12 12 12 12 12 12 12 11 11 10 9 9 9 10 11 10 10 11 11 11 12 13 12 13 13 13 11 11 12 12 13 10 11 10 10 10 10 11 11 11 11 11 10 12 11 11 11 10 11 11 10 9 7 10 10 9 10 11 10 15 21 21 27 29 30 31 31 32
8 8 9 12 12 12 11 11 12 14 14 13 12 13 13 13 12 12 12 13 12 12 12 12 11 10 10 10 10 10 10 11 10 9 10 10 10 12 12 12 14 13 14 13 11 11 9 12 12 13 11 11 11 10 10 11 11 11 9 10 10 11 12 11 10 10 9 9 9 9 10 11 10 10 11 10 9 15 23 24 27 27 24 28 30
8 9 10 11 12 11 11 12 14 15 13 14 14 14 14 15 15 14 14 13 12 12 12 11 11 11 10 11 10 11 12 11 10 10 9 10 10 11 11 13 12 13 15 15 13 12 12 10 10 12 13 12 12 12 11 11 11 11 10 9 9 9 11 11 11 11 10 10 10 10 9 9 10 9 10 9 11 10 20 24 27 28 27 27 30
7 7 8 10 10 10 11 11 12 12 12 14 14 14 14 15 14 14 14 14 13 12 12 12 11 11 11 10 10 12 12 11 10 10 9 9 9 10 11 13 13 12 14 15 13 12 13 13 13 12 13 13 12 12 12 10 10 10 10 10 9 8 8 9 9 7 8 10 11 10 9 7 8 8 8 8 9 9 12 20 25 30 28 27 28
5 6 8 8 8 10 10 12 12 13 14 14 14 14 14 14 14 14 14 14 13 13 13 12 12 11 11 12 13 12 12 11 10 10 9 8 8 9 10 13 12 12 12 15 15 14 13 14 15 13 12 14 14 15 14 12 12 12 11 11 10 8 7 7 7 8 8 7 7 8 8 9 9 8 8 8 8 10 10 11 10 7 17 28 27
6 6 7 8 9 11 10 10 10 12 13 14 14 14 14 14 15 14 14 14 13 13 13 13 13 13 12 13 13 12 11 11 11 11 9 8 7 7 10 12 12 11 12 14 15 13 15 16 17 17 15 11 11 12 11 11 9 10 9 5 3 5 8 7 7 9 9 10 8 7 9 8 8 9 8 7 8 10 10 7 9 12 10 16 25
6 7 9 9 10 12 12 13 12 13 13 14 14 14 15 15 15 15 16 15 14 14 14 13 14 14 14 13 13 12 12 13 12 10 9 8 6 6 8 10 11 12 12 13 16 17 13 13 15 16 18 14 10 10 12 12 11 6 6 7 6 4 3 7 6 6 8 8 9 9 9 8 8 8 7 7 9 10 11 9 8 10 12 10 14
9 8 9 9 9 11 11 14 13 14 14 14 13 13 12 13 14 15 16 17 15 13 15 15 15 15 14 13 13 13 13 13 12 10 8 7 7 6 7 9 10 11 12 14 14 15 12 14 14 11 12 18 12 15 14 14 10 13 12 6 5 4 4 3 4 4 4 6 8 9 8 12 10 8 7 7 6 11 8 10 8 10 11 10 7
6 7 7 9 10 11 12 13 14 15 14 14 12 13 14 15 14 14 15 15 15 16 17 18 17 18 16 14 13 13 13 12 12 10 9 7 7 6 7 7 9 10 12 13 12 14 15 15 15 14 11 9 11 14 18 19 14 9 8 12 8 5 1 1 2 2 3 5 5 8 11 9 11 11 7 8 4 9 9 8 10 10 9 12 9
6 6 8 10 10 12 13 15 16 15 14 13 14 16 17 16 15 16 17 16 18 18 20 18 17 18 18 15 13 12 13 12 11 9 9 9 7 7 7 6 8 8 10 13 12 13 15 15 15 17 20 14 7 11 16 16 14 17 11 11 10 12 9 7 6 1 2 2 5 6 6 10 11 10 9 9 6 7 8 9 10 10 10 10 12
6 8 9 10 10 13 14 14 14 14 13 14 15 15 15 15 15 18 17 17 14 12 13 15 13 15 17 17 16 13 12 11 12 13 12 11 8 7 7 7 7 7 9 11 12 11 14 15 17 17 18 18 15 12 12 12 15 18 18 9 5 6 14 14 10 1 1 3 4 6 6 9 11 12 11 10 9 8 10 10 10 9 10 12 11
8 8 9 11 13 13 13 13 13 13 14 15 16 15 15 16 17 17 20 17 18 14 12 14 16 16 16 18 20 19 15 13 12 12 11 9 9 8 7 7 7 6 7 10 12 11 12 14 16 13 13 12 16 14 13 12 14 14 11 18 14 11 15 10 14 7 1 2 1 2 8 10 8 12 12 13 12 9 9 12 12 9 10 11 11
6 7 9 11 12 12 11 12 13 13 14 15 17 15 16 16 17 17 15 16 18 17 14 14 13 16 17 20 18 19 19 17 14 13 12 11 9 7 7 7 7 7 6 8 11 12 11 13 13 13 16 15 11 15 18 16 11 11 10 9 3 6 12 18 15 10 10 2 0 3 5 9 10 10 14 14 15 12 10 11 12 13 12 12 11
6 7 9 10 11 11 10 12 12 13 13 14 15 15 15 15 17 17 17 16 16 19 18 16 16 15 18 17 15 16 19 18 16 12 10 8 8 8 7 7 6 7 6 7 10 11 10 10 11 18 19 18 21 17 19 17 18 15 14 11 5 7 16 15 16 22 20 17 8 1 2 3 10 10 10 13 15 15 14 12 13 11 10 11 10
6 8 10 10 10 10 11 11 13 13 13 15 15 15 14 14 14 14 18 16 16 16 17 17 16 16 19 17 17 18 17 19 18 15 14 13 11 9 8 7 6 6 6 6 9 12 12 11 11 14 16 13 14 19 18 18 19 19 16 9 7 8 13 10 9 5 12 14 13 16 12 2 5 9 10 11 11 13 14 13 12 13 12 12 13
6 8 9 9 10 10 12 12 14 12 13 15 15 15 15 13 14 16 19 19 16 17 16 17 16 16 17 16 15 15 14 16 17 18 17 15 12 9 7 7 6 6 6 7 8 12 12 11 10 10 13 15 11 11 16 18 18 17 19 16 12 10 12 7 5 10 6 16 18 13 15 17 16 10 10 12 12 12 13 13 12 12 11 12 11
6 8 10 10 11 11 12 14 14 12 13 14 15 16 15 14 14 17 19 20 19 18 18 19 17 16 14 15 16 16 15 15 15 15 17 15 11 8 8 8 7 6 6 6 6 8 10 11 10 10 13 15 14 14 13 14 16 16 18 15 16 18 19 18 17 14 14 7 6 14 13 13 16 12 8 10 12 10 11 13 13 12 12 12 11
Wind_Direction
332 136 147 156 171 174 183 180 179 174 176 174 176 177 188 191 194 190 199 206 213 208 217 213 213 213 213 203 214 226 245 255 258 263 265 266 272 276 281 287 287 284 283 280 274 271 268 265 266 268 264 251 236 216 206 220 219 212 204 199 207 212 204 265 230 242 185 127 131 131 134 134 159 144 139 142 135 129 124 118 132 131 150 140 138
300 188 123 143 156 172 182 185 185 184 185 183 179 186 193 201 207 202 197 204 217 217 210 210 218 215 217 223 220 228 234 239 256 266 276 278 274 274 273 273 275 280 280 281 279 275 270 266 262 263 264 262 250 234 216 210 214 213 198 194 202 215 218 229 192 245 145 130 135 140 137 142 154 148 141 144 148 138 126 132 137 138 151 139 135
325 48 119 135 136 170 180 190 188 187 191 194 189 192 207 206 214 214 221 214 211 220 223 217 219 222 223 227 235 235 239 240 247 258 262 268 270 267 268 269 271 276 280 278 279 278 273 266 264 260 261 262 263 251 219 213 214 210 180 182 194 209 224 225 190 240 146 138 138 147 139 148 155 162 149 152 148 145 137 141 142 142 144 135 136
356 25 91 128 125 99 66 209 194 195 190 203 191 183 213 227 216 222 224 228 226 221 223 228 225 226 225 228 241 243 248 259 262 259 259 262 265 267 253 250 254 262 268 271 273 275 275 271 266 262 258 257 262 269 228 209 209 202 191 193 188 182 202 197 199 209 145 140 141 134 138 151 163 168 151 151 149 141 146 148 148 140 143 146 142
342 30 73 96 110 87 72 21 359 229 191 209 201 181 208 228 232 235 230 229 234 234 229 227 229 233 237 245 246 248 252 255 264 267 257 254 258 263 266 269 261 264 266 269 272 270 270 270 267 264 260 254 247 258 246 199 203 206 205 201 189 177 181 189 207 209 147 151 143 132 134 148 162 162 154 153 151 137 152 152 152 140 140 154 145
343 11 106 111 129 144 104 36 360 356 266 240 224 199 209 223 223 231 237 239 245 249 243 233 230 237 234 239 247 253 250 252 254 257 260 256 253 249 252 262 268 269 271 268 266 264 266 268 267 263 260 257 247 241 237 201 201 204 202 203 191 182 181 185 199 209 154 157 144 138 136 151 156 170 162 158 152 144 153 155 143 141 155 170 149
346 346 41 113 166 165 144 122 17 350 348 305 265 237 223 234 230 229 229 236 241 250 270 280 276 253 250 246 250 253 254 254 254 257 260 262 258 256 249 249 253 259 264 264 264 263 261 261 263 261 258 256 255 239 228 208 205 203 201 201 194 189 186 184 187 208 165 156 150 147 148 154 158 174 171 166 158 155 156 156 148 158 159 160 148
16 350 11 35 48 79 84 42 6 3 336 336 333 306 271 250 249 245 243 244 247 246 243 249 259 281 278 265 252 254 258 258 256 258 263 261 257 260 258 256 254 245 249 255 252 253 257 255 252 252 255 257 254 249 222 208 210 206 210 206 201 193 191 187 188 189 187 165 160 158 156 156 152 167 179 173 168 162 161 162 160 156 153 147 138
17 17 29 39 40 50 38 21 2 345 336 329 321 324 319 294 272 257 254 251 254 260 258 253 252 247 255 266 274 268 260 260 258 258 259 262 270 276 277 275 266 249 247 255 266 271 270 255 247 238 239 244 245 246 234 209 211 213 204 210 206 199 197 187 183 185 185 192 178 167 163 161 155 181 185 181 176 169 162 159 156 150 153 154 147
20 23 25 29 34 40 38 30 20 10 359 348 341 331 317 314 302 277 262 265 266 265 266 264 264 261 265 272 265 260 265 262 260 261 260 263 259 248 238 249 254 248 250 254 252 258 263 268 263 259 252 234 228 230 240 214 210 208 198 207 207 205 204 183 185 187 194 191 185 178 172 166 164 176 192 183 177 169 156 153 149 157 162 149 152
18 17 21 23 24 31 28 21 14 2 352 341 334 327 321 311 307 303 282 267 263 265 269 270 268 269 267 261 265 272 271 270 266 260 263 260 256 255 244 234 244 250 255 255 259 260 261 266 267 260 257 257 240 224 226 209 206 203 198 204 209 206 203 185 178 187 212 195 188 189 181 171 166 175 192 185 175 165 152 149 157 165 166 153 154
19 14 9 5 7 20 18 30 5 348 336 331 327 322 320 317 311 304 302 287 277 276 274 273 274 273 267 269 270 263 259 261 260 257 253 255 256 256 252 241 240 246 253 259 260 260 262 261 265 263 255 254 268 245 221 206 208 204 200 202 205 206 200 183 174 192 206 200 193 184 179 175 173 180 190 179 177 173 157 158 166 171 162 159 159
22 19 15 7 2 359 358 12 360 333 327 327 323 325 322 319 319 316 312 309 300 290 287 284 280 276 274 271 269 268 265 264 272 271 259 244 241 246 250 249 240 245 250 255 258 260 260 259 259 260 258 252 251 257 238 207 206 211 211 205 201 204 196 182 186 193 196 205 198 179 180 181 179 179 189 177 174 182 167 163 171 169 165 165 160
29 25 23 20 18 17 15 5 344 328 329 321 324 322 319 318 316 319 322 322 318 310 301 295 291 286 281 276 273 273 274 271 264 265 267 255 244 244 248 249 247 246 248 247 252 257 259 258 256 258 261 261 256 250 255 225 212 217 216 217 204 199 189 185 190 195 194 205 206 182 184 180 183 180 187 183 176 186 171 168 170 171 167 169 160
33 25 22 23 20 19 16 16 15 3 339 323 322 318 318 316 312 310 307 308 312 314 313 308 303 299 294 292 286 279 273 266 262 265 265 271 268 260 248 245 247 245 246 246 248 252 255 255 254 256 267 268 258 240 239 245 224 219 216 216 205 201 183 188 192 198 191 203 209 192 190 180 184 180 186 187 174 186 178 171 173 172 164 164 162
36 28 24 24 20 16 18 15 12 10 7 347 325 319 318 313 310 308 305 302 301 303 303 304 303 302 301 296 291 290 285 283 280 272 270 262 259 258 257 249 246 245 244 246 246 248 249 253 253 251 242 246 251 244 235 234 236 225 217 215 215 201 186 187 196 203 198 200 198 200 199 185 185 183 186 191 180 180 185 175 176 174 171 163 169
34 28 29 24 21 16 15 16 11 10 7 3 355 338 319 312 308 302 303 299 297 294 295 296 297 296 296 297 300 295 290 284 277 275 269 268 261 260 257 256 255 249 246 246 245 245 246 247 248 243 241 243 246 246 239 224 225 231 213 206 208 204 189 189 195 205 200 199 197 192 196 189 184 183 188 193 188 183 184 177 175 178 172 168 165
30 29 27 24 23 18 13 15 14 7 4 4 0 355 352 342 322 305 296 293 289 288 287 287 287 290 290 288 287 290 288 281 277 274 270 264 256 250 255 252 249 247 244 245 244 242 243 244 242 236 235 236 238 244 239 216 215 222 212 204 202 202 190 192 198 204 204 201 195 185 197 190 182 186 190 195 189 186 190 178 177 175 172 167 166
28 28 25 20 19 19 14 11 18 10 3 1 358 356 354 350 347 341 323 293 289 289 290 285 282 282 282 283 281 280 280 280 276 269 263 259 259 249 239 243 245 243 242 243 242 241 239 241 238 235 230 232 231 233 230 214 211 217 209 203 202 197 194 192 202 203 205 203 192 186 211 197 182 181 189 206 191 193 189 182 177 176 168 172 156
29 25 21 18 14 19 15 11 13 12 5 357 355 354 352 352 350 346 341 327 311 301 294 289 287 280 278 278 279 278 277 275 272 268 261 254 252 250 241 239 240 240 239 241 242 240 238 238 236 233 229 225 229 232 229 216 211 212 206 199 198 193 193 198 201 204 204 204 198 186 199 194 178 189 188 201 195 195 196 186 174 174 169 175 148
24 26 21 14 11 12 14 11 8 14 6 358 354 350 350 350 349 346 342 340 334 319 305 300 291 286 279 275 275 276 271 271 267 263 259 255 245 243 246 247 244 239 237 237 241 242 240 237 234 231 228 229 230 229 228 218 213 210 204 196 193 194 199 198 205 203 204 206 200 194 190 190 181 182 185 201 200 194 183 194 175 173 174 166 155
15 14 15 12 10 7 6 9 1 8 8 1 354 349 347 349 348 344 342 341 337 333 325 309 297 290 283 279 273 268 269 266 266 262 258 253 246 239 240 241 241 238 236 235 237 240 240 237 231 226 227 231 233 232 230 222 214 209 203 196 192 199 201 201 202 201 203 206 196 195 189 183 184 184 192 194 194 199 183 184 182 174 176 166 163
13 12 8 9 5 3 4 9 360 360 5 1 353 349 349 349 347 343 340 340 336 334 332 328 313 292 288 282 274 268 263 263 260 255 253 252 247 240 237 238 239 237 234 231 232 233 234 236 230 230 230 232 233 228 223 217 215 210 203 196 198 200 200 203 206 200 200 201 190 190 184 182 186 193 196 200 193 183 195 179 182 174 180 168 161
354 4 352 358 4 5 360 2 360 353 5 356 352 348 346 350 345 341 340 339 337 333 331 328 326 319 301 284 281 275 267 266 264 260 256 254 250 243 239 236 236 236 233 232 232 231 229 233 234 234 234 231 225 223 219 217 212 202 203 201 198 198 200 202 204 202 199 195 196 189 182 185 189 194 197 197 193 183 187 183 179 177 184 164 164
336 330 1 5 1 359 358 353 358 351 1 356 351 349 340 343 344 338 340 338 334 332 327 324 321 321 321 314 295 283 282 276 272 270 259 252 248 246 242 240 236 236 232 232 229 229 226 226 230 233 228 224 220 219 214 215 211 204 200 201 199 196 200 203 206 204 205 192 192 195 189 187 190 197 200 199 189 187 181 183 182 182 182 166 161
345 4 357 357 0 354 355 351 357 352 358 352 346 338 336 342 342 337 335 335 333 329 326 323 324 324 320 314 313 307 300 294 290 282 277 266 250 239 239 235 231 232 222 225 223 221 220 220 222 223 222 220 219 214 213 210 210 208 200 199 198 196 199 199 202 207 203 200 194 195 193 194 193 199 201 198 191 188 183 185 179 177 177 167 164
351 338 341 355 349 351 345 353 356 352 353 345 339 340 333 336 336 334 335 332 331 326 328 330 328 320 316 316 314 312 311 310 304 299 290 286 285 274 257 238 231 229 221 220 219 215 215 216 217 220 219 216 217 213 210 208 207 207 204 201 198 195 194 198 204 204 203 198 196 190 193 197 195 198 200 196 191 188 182 185 179 176 176 168 168
356 344 340 344 344 350 338 350 353 356 348 344 340 337 326 333 331 332 332 327 328 325 332 330 321 319 320 320 317 312 310 311 307 300 293 289 282 274 274 274 250 230 217 215 219 217 215 215 215 217 214 214 214 213 208 205 205 204 206 205 200 196 194 196 202 202 200 201 191 188 188 193 198 201 199 197 192 185 184 180 176 174 175 168 165
357 348 331 340 337 347 339 341 350 351 347 340 342 333 328 330 329 330 327 324 320 320 323 318 316 322 328 326 326 320 315 308 305 303 302 295 289 277 267 260 256 252 233 219 214 217 216 213 213 213 208 207 210 210 207 204 202 203 203 204 202 198 194 193 196 195 195 190 190 191 190 190 194 196 197 195 190 185 188 184 184 173 170 172 171
339 332 337 334 334 344 341 335 347 349 344 344 341 338 336 333 332 329 324 321 316 313 314 314 312 323 324 326 323 318 320 322 319 315 312 307 298 289 274 256 251 246 244 240 219 216 216 212 209 208 205 206 206 205 203 204 200 201 203 201 200 200 193 187 182 187 195 189 190 186 189 189 191 196 194 194 191 189 194 189 180 176 173 172 166
333 337 334 332 324 338 340 331 342 346 345 344 340 336 334 334 332 330 327 325 320 315 314 313 312 316 317 319 317 322 325 322 318 316 312 307 303 297 284 270 257 247 247 256 252 238 220 210 205 200 200 201 205 197 199 204 199 200 200 200 200 196 193 186 184 184 183 187 185 185 189 190 190 196 196 188 184 191 194 188 180 174 172 172 171
341 333 327 326 331 338 339 332 340 342 342 339 336 333 332 331 330 328 325 322 321 318 314 312 311 307 308 310 314 315 316 313 313 312 310 307 305 302 294 278 261 254 240 238 237 237 225 215 207 201 198 194 198 196 194 200 203 197 193 198 193 192 188 184 185 184 182 180 179 182 185 187 192 192 192 187 187 190 194 186 177 171 168 168 165
318 313 320 324 337 340 339 334 340 342 341 337 334 330 327 329 328 327 323 320 317 313 310 310 307 304 304 306 308 309 308 308 309 308 307 305 303 303 299 289 274 256 242 237 236 237 232 211 203 194 191 192 193 198 194 196 202 200 189 192 190 190 182 181 183 183 180 176 176 178 182 181 176 188 188 187 189 192 195 178 175 169 167 166 163
322 318 326 344 345 343 342 340 343 343 338 334 330 328 328 325 322 319 318 318 316 313 308 305 303 300 300 300 301 302 302 302 303 304 306 305 304 300 297 294 286 271 252 240 235 231 223 218 195 186 192 192 196 191 192 198 198 194 194 186 188 190 181 180 180 182 176 174 175 180 170 176 178 183 186 190 189 198 194 185 174 173 168 169 161
339 346 353 346 349 348 347 343 342 339 336 332 328 325 324 322 320 317 315 312 309 306 304 303 300 297 298 296 295 295 295 296 296 300 303 302 302 299 296 295 294 283 263 245 239 231 220 220 198 189 190 196 195 192 191 197 189 193 190 188 187 184 184 181 174 174 176 169 164 170 168 178 182 179 179 183 189 189 192 187 177 174 168 168 163
353 349 353 351 348 345 344 340 337 335 334 330 327 324 321 318 315 312 311 310 307 304 302 298 294 288 287 290 291 288 288 289 290 295 295 298 298 298 296 297 296 293 272 252 238 232 230 218 201 187 183 196 191 194 195 192 190 188 189 187 186 182 181 177 171 168 166 158 163 174 175 177 177 179 170 178 185 188 192 189 182 180 171 167 161
351 353 351 348 346 343 341 340 338 334 329 325 322 321 320 318 315 310 305 303 300 298 296 296 290 286 283 283 286 289 288 284 285 287 289 292 297 296 298 299 304 302 291 260 236 230 220 218 212 193 187 186 190 190 193 189 186 184 179 183 174 175 176 174 172 166 157 163 164 174 172 175 161 170 171 171 181 186 189 189 180 174 174 167 161
344 347 348 345 340 338 338 334 329 328 328 327 325 322 318 314 312 309 306 302 299 297 296 294 290 285 281 277 282 284 281 277 279 282 281 284 289 294 300 302 301 300 297 281 248 226 221 211 207 201 191 184 188 187 186 185 180 176 176 174 171 167 170 166 158 148 156 162 164 172 171 160 156 162 169 169 175 175 183 192 190 170 164 161 162
329 336 344 340 336 334 332 331 331 330 329 325 320 315 313 310 306 306 304 302 302 301 296 291 290 287 279 280 282 280 273 271 276 279 277 280 284 291 297 298 297 296 294 292 264 235 223 212 202 200 196 190 187 183 179 177 177 175 178 174 169 163 150 152 158 159 155 155 160 160 153 161 157 156 155 166 167 158 166 168 150 159 158 157 158
331 337 340 337 333 331 331 328 329 329 327 324 323 321 320 320 317 313 309 307 303 298 295 294 293 287 283 282 280 276 271 272 275 274 267 270 278 287 296 299 296 294 295 294 282 249 219 208 207 194 189 195 187 178 173 166 165 168 157 119 105 129 147 151 159 161 160 156 154 156 157 155 156 150 152 156 161 160 154 162 154 151 150 157 157
335 338 340 338 337 333 332 332 331 330 330 327 326 327 326 323 318 314 312 308 303 299 297 298 292 286 283 282 281 276 271 271 273 269 261 259 263 280 292 295 296 295 295 294 296 271 231 215 208 191 181 173 178 177 170 153 139 95 96 106 79 59 93 137 150 159 160 157 151 156 149 142 146 150 150 147 160 160 152 154 157 146 152 157 168
340 341 337 333 332 332 335 331 331 330 327 324 322 324 325 318 314 313 312 309 311 312 309 307 300 290 284 280 278 275 273 272 269 262 256 250 263 277 284 290 297 299 297 296 292 290 267 223 199 196 194 179 178 172 164 149 164 155 147 124 82 62 28 64 120 153 158 163 161 152 152 150 151 144 147 135 167 147 155 149 158 152 149 145 155
325 331 327 335 338 341 339 334 331 328 324 324 328 327 322 316 316 316 320 319 315 316 312 309 306 298 292 287 280 276 274 272 266 259 256 252 252 264 275 283 292 298 300 298 299 291 283 247 226 193 186 205 179 174 167 172 162 151 128 119 142 127 22 15 358 90 190 166 168 170 158 154 149 145 145 133 151 132 146 149 150 146 148 146 148
333 335 343 343 343 343 339 334 330 327 325 328 333 329 324 325 327 322 317 313 311 314 309 305 303 299 295 293 284 277 270 266 264 264 260 253 246 254 269 277 284 291 293 296 293 289 284 274 238 206 177 178 194 181 183 179 160 146 160 173 165 153 143 205 171 242 339 191 167 175 167 158 151 144 142 142 141 138 144 151 149 147 149 146 145
342 344 347 348 343 338 334 331 328 327 326 331 334 330 326 326 323 318 314 309 299 295 299 302 308 315 317 308 301 284 269 264 266 266 258 252 244 246 254 267 276 280 291 291 292 290 288 281 242 215 194 172 173 178 186 187 176 180 152 117 98 161 194 172 152 26 355 150 203 174 171 157 157 153 153 150 144 158 146 148 148 151 150 144 145
347 349 350 346 341 333 330 331 331 332 333 333 335 334 331 328 327 326 325 323 315 316 315 317 319 312 306 304 304 302 289 277 270 266 256 248 244 239 250 263 270 274 283 291 291 290 289 281 261 237 208 189 168 172 175 193 187 185 186 169 154 173 166 142 152 172 346 326 190 233 174 167 170 159 156 152 153 157 159 152 153 151 150 146 149
346 350 350 341 334 328 330 334 334 333 333 333 335 334 328 325 322 318 311 308 306 302 303 305 307 305 302 296 295 299 297 286 274 266 262 249 240 236 246 254 261 274 269 289 293 292 289 282 283 249 216 188 187 175 177 179 178 195 188 185 74 87 146 152 173 139 150 174 347 171 191 172 171 169 160 161 157 155 160 155 156 156 156 148 153
346 350 341 335 330 328 331 334 331 331 331 331 328 328 322 319 317 315 311 309 305 303 307 307 305 303 300 304 310 308 306 300 284 273 263 252 240 238 241 249 259 270 276 284 293 292 286 284 275 268 242 200 176 186 182 180 176 186 189 180 89 128 168 193 171 164 165 160 179 329 339 225 171 177 170 162 160 160 159 162 159 158 152 149 151
352 345 338 331 329 330 330 329 327 329 329 327 324 321 319 314 312 312 311 308 308 307 306 303 305 309 306 305 300 301 302 302 299 286 276 267 250 231 235 246 247 261 275 283 296 295 288 283 272 278 277 243 197 178 179 185 187 180 177 175 120 140 164 178 184 209 153 153 169 168 173 163 169 179 173 170 166 163 161 161 163 159 157 155 157
341 337 331 331 330 328 325 326 327 328 326 326 324 320 319 316 314 312 308 307 307 305 305 303 304 305 300 303 305 303 302 301 303 302 288 269 250 225 228 241 245 253 261 274 291 299 299 289 284 274 278 264 224 200 189 189 190 183 182 169 159 147 150 162 182 183 207 172 160 179 169 164 172 183 171 171 170 170 163 159 157 160 162 158 160
339 335 334 334 331 328 326 324 322 321 324 325 325 321 320 319 315 312 309 305 306 306 308 307 306 301 304 310 311 307 303 300 302 301 296 276 247 224 221 232 237 243 254 265 274 292 296 299 292 286 280 280 263 210 209 201 191 187 182 178 172 166 166 180 181 181 169 171 153 161 168 177 168 153 183 170 167 171 167 158 159 164 163 161 162